| time (UTC) | temp F | wind direction | speed MPH | gust MPH | rain 1hr in | rain 24hr in | rain mn in | humidity % | barometer mb |
| 20260906163022 | 85 | 202 | 1.0 | 2.0 | 0.00 | 0.44 | 0.00 | 79 | 1015.2 |
| 20260906162120 | 85 | 225 | 0.0 | 1.0 | 0.00 | 0.44 | 0.00 | 78 | 1015.4 |
| 20260906160122 | 85 | 67 | 0.0 | 0.0 | 0.00 | 0.44 | 0.00 | 75 | 1015.3 |
| 20260906155121 | 85 | 45 | 0.0 | 0.0 | 0.00 | 0.44 | 0.00 | 74 | 1015.2 |
| 20260906154122 | 85 | 45 | 0.0 | 0.0 | 0.00 | 0.44 | 0.00 | 73 | 1015.1 |
| 20260906153123 | 86 | 247 | 0.0 | 0.0 | 0.00 | 0.44 | 0.00 | 74 | 1015.2 |
| 20260906152121 | 86 | 18 | 2.0 | 5.0 | 0.00 | 0.44 | 0.00 | 79 | 1015.1 |
| 20260906151123 | 86 | 45 | 0.0 | 0.0 | 0.00 | 0.44 | 0.00 | 81 | 1015.0 |
| 20260906145221 | 86 | 90 | 0.0 | 0.0 | 0.00 | 0.44 | 0.00 | 80 | 1014.9 |
| 20260906144222 | 87 | 180 | 0.0 | 0.0 | 0.00 | 0.44 | 0.00 | 80 | 1014.8 |
| 20260906143222 | 87 | 180 | 0.0 | 0.0 | 0.00 | 0.44 | 0.00 | 80 | 1015.0 |
| 20260906142222 | 87 | 134 | 0.0 | 0.0 | 0.00 | 0.44 | 0.00 | 79 | 1014.9 |
| 20260906141221 | 86 | 45 | 0.0 | 0.0 | 0.00 | 0.44 | 0.00 | 82 | 1015.0 |
| 20260906140221 | 85 | 45 | 0.0 | 0.0 | 0.00 | 0.44 | 0.00 | 84 | 1014.8 |
| 20260906135220 | 84 | 45 | 0.0 | 0.0 | 0.00 | 0.44 | 0.00 | 86 | 1014.8 |
| 20260906134222 | 83 | 45 | 0.0 | 0.0 | 0.00 | 0.44 | 0.00 | 88 | 1014.8 |
| 20260906133221 | 81 | 45 | 0.0 | 0.0 | 0.00 | 0.44 | 0.00 | 92 | 1014.8 |
| 20260906132223 | 80 | 45 | 0.0 | 0.0 | 0.00 | 0.44 | 0.00 | 95 | 1014.8 |
| 20260906131221 | 79 | 45 | 0.0 | 0.0 | 0.00 | 0.44 | 0.00 | 97 | 1014.5 |
| 20260906130221 | 79 | 45 | 0.0 | 0.0 | 0.00 | 0.44 | 0.00 | 97 | 1014.3 |
| 20260906124223 | 78 | 45 | 0.0 | 0.0 | 0.00 | 0.44 | 0.00 | 97 | 1014.2 |
| 20260906122222 | 77 | 45 | 0.0 | 0.0 | 0.00 | 0.44 | 0.00 | 95 | 1013.9 |
| 20260906121222 | 77 | 45 | 0.0 | 0.0 | 0.00 | 0.44 | 0.00 | 95 | 1013.9 |
| 20260906120221 | 77 | 45 | 0.0 | 0.0 | 0.00 | 0.44 | 0.00 | 96 | 1013.7 |
| 20260906115221 | 77 | 45 | 0.0 | 0.0 | 0.00 | 0.44 | 0.00 | 96 | 1013.6 |
| 20260906113222 | 77 | 45 | 0.0 | 0.0 | 0.00 | 0.44 | 0.00 | 96 | 1013.4 |
| 20260906113121 | 77 | 45 | 0.0 | 0.0 | 0.00 | 0.44 | 0.00 | 96 | 1013.5 |
| 20260906111120 | 77 | 45 | 0.0 | 0.0 | 0.00 | 0.44 | 0.00 | 95 | 1013.2 |
| 20260906110122 | 77 | 45 | 0.0 | 0.0 | 0.00 | 0.44 | 0.00 | 95 | 1013.2 |
| 20260906103220 | 77 | 45 | 0.0 | 0.0 | 0.00 | 0.44 | 0.00 | 95 | 1013.2 |
| 20260906102219 | 77 | 45 | 0.0 | 0.0 | 0.00 | 0.44 | 0.00 | 94 | 1013.1 |
| 20260906095221 | 78 | 45 | 0.0 | 0.0 | 0.00 | 0.44 | 0.00 | 94 | 1013.1 |
| 20260906095122 | 78 | 45 | 0.0 | 0.0 | 0.00 | 0.44 | 0.00 | 93 | 1013.0 |
| 20260906093121 | 78 | 45 | 0.0 | 0.0 | 0.00 | 0.44 | 0.00 | 93 | 1012.9 |
| 20260906092221 | 78 | 45 | 0.0 | 0.0 | 0.00 | 0.44 | 0.00 | 94 | 1012.8 |
| 20260906091319 | 79 | 45 | 0.0 | 0.0 | 0.00 | 0.44 | 0.00 | 93 | 1012.8 |
| 20260906090322 | 79 | 45 | 0.0 | 0.0 | 0.00 | 0.44 | 0.00 | 94 | 1013.1 |
| 20260906085320 | 79 | 45 | 0.0 | 0.0 | 0.00 | 0.44 | 0.00 | 93 | 1013.0 |
| 20260906084322 | 79 | 45 | 0.0 | 0.0 | 0.00 | 0.44 | 0.00 | 94 | 1012.7 |
| 20260906083320 | 79 | 45 | 0.0 | 0.0 | 0.00 | 0.44 | 0.00 | 93 | 1012.7 |
| 20260906082419 | 79 | 45 | 0.0 | 0.0 | 0.00 | 0.44 | 0.00 | 92 | 1012.8 |
| 20260906081421 | 79 | 45 | 0.0 | 0.0 | 0.00 | 0.44 | 0.00 | 93 | 1012.9 |
| 20260906080520 | 79 | 45 | 0.0 | 0.0 | 0.00 | 0.44 | 0.00 | 92 | 1013.0 |
| 20260906075620 | 79 | 45 | 0.0 | 0.0 | 0.00 | 0.44 | 0.00 | 93 | 1013.0 |
| 20260906074620 | 79 | 45 | 0.0 | 0.0 | 0.00 | 0.44 | 0.00 | 93 | 1013.0 |
| 20260906073523 | 79 | 45 | 0.0 | 0.0 | 0.00 | 0.44 | 0.00 | 93 | 1012.8 |
| 20260906072520 | 79 | 45 | 0.0 | 0.0 | 0.00 | 0.44 | 0.00 | 92 | 1013.0 |
| 20260906071521 | 79 | 45 | 0.0 | 0.0 | 0.00 | 0.44 | 0.00 | 92 | 1013.1 |
| 20260906070521 | 79 | 45 | 0.0 | 0.0 | 0.00 | 0.44 | 0.00 | 92 | 1013.1 |
| 20260906065522 | 79 | 45 | 0.0 | 0.0 | 0.00 | 0.44 | 0.00 | 91 | 1013.1 |
| 20260906064523 | 79 | 45 | 0.0 | 0.0 | 0.00 | 0.44 | 0.00 | 92 | 1013.2 |
| 20260906063522 | 80 | 45 | 0.0 | 0.0 | 0.00 | 0.44 | 0.00 | 92 | 1013.2 |
| 20260906062619 | 80 | 45 | 0.0 | 0.0 | 0.00 | 0.44 | 0.00 | 91 | 1013.1 |
| 20260906061621 | 80 | 45 | 0.0 | 0.0 | 0.00 | 0.44 | 0.00 | 90 | 1013.1 |
| 20260906060720 | 80 | 45 | 0.0 | 0.0 | 0.00 | 0.44 | 0.00 | 91 | 1013.1 |
| 20260906055721 | 80 | 45 | 0.0 | 0.0 | 0.00 | 0.44 | 0.00 | 92 | 1013.1 |
| 20260906055619 | 80 | 45 | 0.0 | 0.0 | 0.00 | 0.44 | 0.00 | 91 | 1013.1 |
| 20260906054620 | 80 | 45 | 0.0 | 0.0 | 0.00 | 0.44 | 0.00 | 91 | 1013.1 |
| 20260906053623 | 80 | 45 | 0.0 | 0.0 | 0.00 | 0.44 | 0.00 | 92 | 1013.2 |
| 20260906052721 | 79 | 45 | 0.0 | 0.0 | 0.00 | 0.44 | 0.00 | 93 | 1013.2 |
| 20260906051722 | 80 | 45 | 0.0 | 0.0 | 0.00 | 0.44 | 0.00 | 93 | 1013.1 |
| 20260906050721 | 80 | 45 | 0.0 | 0.0 | 0.00 | 0.44 | 0.00 | 93 | 1013.1 |
| 20260906045726 | 80 | 45 | 0.0 | 0.0 | 0.00 | 0.44 | 0.44 | 93 | 1013.1 |
| 20260906044726 | 80 | 45 | 0.0 | 0.0 | 0.00 | 0.44 | 0.44 | 93 | 1013.1 |
| 20260906042726 | 80 | 45 | 0.0 | 0.0 | 0.00 | 0.44 | 0.44 | 91 | 1013.2 |
| 20260906041729 | 80 | 45 | 0.0 | 0.0 | 0.00 | 0.44 | 0.44 | 91 | 1013.4 |
| 20260906040725 | 80 | 45 | 0.0 | 0.0 | 0.00 | 0.44 | 0.44 | 91 | 1013.3 |
| 20260906035727 | 81 | 45 | 0.0 | 0.0 | 0.00 | 0.44 | 0.44 | 91 | 1013.3 |
| 20260906034726 | 81 | 45 | 0.0 | 0.0 | 0.00 | 0.44 | 0.44 | 91 | 1013.3 |
| 20260906033825 | 81 | 45 | 0.0 | 0.0 | 0.00 | 0.44 | 0.44 | 90 | 1013.5 |
| 20260906032824 | 81 | 45 | 0.0 | 0.0 | 0.00 | 0.44 | 0.44 | 91 | 1013.5 |
| 20260906032726 | 81 | 45 | 0.0 | 0.0 | 0.00 | 0.44 | 0.44 | 91 | 1013.6 |
| 20260906031825 | 81 | 45 | 0.0 | 0.0 | 0.00 | 0.44 | 0.44 | 91 | 1013.4 |
| 20260906030824 | 81 | 45 | 0.0 | 0.0 | 0.00 | 0.44 | 0.44 | 91 | 1013.2 |
| 20260906025827 | 81 | 45 | 0.0 | 0.0 | 0.00 | 0.44 | 0.44 | 91 | 1013.4 |
| 20260906023928 | 81 | 45 | 0.0 | 0.0 | 0.00 | 0.44 | 0.44 | 90 | 1013.0 |
| 20260906022926 | 81 | 45 | 0.0 | 0.0 | 0.00 | 0.44 | 0.44 | 90 | 1013.1 |
| 20260906021026 | 81 | 45 | 0.0 | 0.0 | 0.00 | 0.44 | 0.44 | 89 | 1012.7 |
| 20260906015028 | 82 | 45 | 0.0 | 0.0 | 0.00 | 0.44 | 0.44 | 87 | 1012.7 |
| 20260906014125 | 82 | 45 | 0.0 | 0.0 | 0.00 | 0.44 | 0.44 | 86 | 1012.5 |
| 20260906012324 | 83 | 45 | 0.0 | 0.0 | 0.00 | 0.44 | 0.44 | 84 | 1012.3 |
| 20260906011326 | 83 | 45 | 0.0 | 0.0 | 0.00 | 0.44 | 0.44 | 82 | 1012.4 |
| 20260906010326 | 84 | 45 | 0.0 | 0.0 | 0.00 | 0.44 | 0.44 | 82 | 1012.3 |
| 20260906004325 | 84 | 45 | 0.0 | 0.0 | 0.00 | 0.44 | 0.44 | 81 | 1012.5 |
| 20260906003328 | 84 | 45 | 0.0 | 2.0 | 0.00 | 0.44 | 0.44 | 81 | 1012.4 |
| 20260906002327 | 85 | 22 | 0.0 | 1.0 | 0.00 | 0.44 | 0.44 | 80 | 1012.4 |
| 20260906000327 | 85 | 22 | 1.0 | 2.0 | 0.00 | 0.44 | 0.44 | 79 | 1013.0 |
| 20260905235326 | 85 | 67 | 0.0 | 0.0 | 0.00 | 0.44 | 0.44 | 79 | 1012.8 |
| 20260905234325 | 85 | 142 | 0.0 | 0.0 | 0.00 | 0.44 | 0.44 | 79 | 1012.8 |
| 20260905234226 | 85 | 112 | 0.0 | 0.0 | 0.00 | 0.44 | 0.44 | 78 | 1012.8 |
| 20260905233227 | 86 | 90 | 0.0 | 0.0 | 0.00 | 0.44 | 0.44 | 77 | 1012.8 |
| 20260905232226 | 86 | 67 | 0.0 | 0.0 | 0.00 | 0.44 | 0.44 | 77 | 1012.7 |
| 20260905231226 | 86 | 135 | 0.0 | 0.0 | 0.00 | 0.44 | 0.44 | 76 | 1012.5 |
| 20260905230227 | 86 | 189 | 0.0 | 0.0 | 0.00 | 0.44 | 0.44 | 76 | 1012.6 |
| 20260905225325 | 86 | 157 | 0.0 | 0.0 | 0.00 | 0.44 | 0.44 | 75 | 1012.6 |
| 20260905224326 | 87 | 42 | 0.0 | 3.0 | 0.00 | 0.44 | 0.44 | 75 | 1012.5 |
| 20260905223348 | 87 | 284 | 0.0 | 1.0 | 0.00 | 0.44 | 0.44 | 74 | 1012.6 |
| 20260905222252 | 87 | 68 | 0.0 | 1.0 | 0.00 | 0.44 | 0.44 | 74 | 1012.4 |
| 20260905222147 | 87 | 90 | 0.0 | 0.0 | 0.00 | 0.44 | 0.44 | 73 | 1012.4 |
| 20260905221151 | 87 | 90 | 0.0 | 0.0 | 0.00 | 0.44 | 0.44 | 73 | 1012.5 |
| 20260905220150 | 88 | 53 | 0.0 | 1.0 | 0.00 | 0.44 | 0.44 | 71 | 1012.4 |
| 20260905215249 | 89 | 103 | 0.0 | 3.0 | 0.00 | 0.44 | 0.44 | 68 | 1012.5 |
| 20260905214248 | 89 | 225 | 0.0 | 0.0 | 0.00 | 0.44 | 0.44 | 62 | 1012.4 |
| 20260905213348 | 90 | 225 | 0.0 | 0.0 | 0.00 | 0.44 | 0.44 | 61 | 1012.6 |
| 20260905212348 | 90 | 69 | 0.0 | 0.0 | 0.00 | 0.44 | 0.44 | 60 | 1012.7 |
| 20260905210349 | 90 | 149 | 0.0 | 0.0 | 0.00 | 0.44 | 0.44 | 63 | 1012.7 |
| 20260905205348 | 90 | 180 | 0.0 | 0.0 | 0.00 | 0.44 | 0.44 | 62 | 1012.8 |
| 20260905205250 | 90 | 180 | 0.0 | 0.0 | 0.00 | 0.44 | 0.44 | 62 | 1012.8 |
| 20260905204349 | 89 | 212 | 0.0 | 0.0 | 0.00 | 0.44 | 0.44 | 64 | 1012.8 |
| 20260905203448 | 89 | 199 | 0.0 | 0.0 | 0.00 | 0.44 | 0.44 | 67 | 1013.1 |
| 20260905202448 | 88 | 252 | 0.0 | 2.0 | 0.00 | 0.44 | 0.44 | 71 | 1013.2 |
| 20260905201450 | 87 | 225 | 0.0 | 0.0 | 0.00 | 0.44 | 0.44 | 74 | 1013.1 |
| 20260905200450 | 86 | 225 | 0.0 | 2.0 | 0.00 | 0.44 | 0.44 | 76 | 1013.3 |
| 20260905195548 | 86 | 225 | 0.0 | 2.0 | 0.00 | 0.44 | 0.44 | 77 | 1013.2 |
| 20260905194548 | 85 | 225 | 1.0 | 2.0 | 0.00 | 0.44 | 0.44 | 80 | 1013.1 |
| 20260905193648 | 84 | 247 | 0.0 | 0.0 | 0.00 | 0.45 | 0.44 | 82 | 1013.2 |
| 20260905192651 | 84 | 270 | 0.0 | 0.0 | 0.00 | 0.46 | 0.44 | 85 | 1013.3 |
| 20260905191748 | 84 | 225 | 0.0 | 0.0 | 0.00 | 0.47 | 0.44 | 83 | 1013.8 |
| 20260905190750 | 84 | 225 | 0.0 | 0.0 | 0.00 | 0.48 | 0.44 | 84 | 1014.0 |
| 20260905184847 | 84 | 225 | 0.0 | 1.0 | 0.00 | 0.48 | 0.44 | 87 | 1014.1 |
| 20260905183850 | 82 | 225 | 0.0 | 0.0 | 0.00 | 0.49 | 0.44 | 90 | 1014.4 |
| 20260905182849 | 81 | 225 | 0.0 | 0.0 | 0.02 | 0.52 | 0.44 | 92 | 1014.6 |
| 20260905180849 | 78 | 202 | 0.0 | 1.0 | 0.14 | 0.52 | 0.44 | 95 | 1014.7 |
| 20260905175851 | 77 | 202 | 1.0 | 1.0 | 0.16 | 0.52 | 0.44 | 95 | 1014.7 |
| 20260905174850 | 76 | 202 | 0.0 | 0.0 | 0.22 | 0.52 | 0.44 | 94 | 1015.1 |
| 20260905173850 | 76 | 202 | 1.0 | 2.0 | 0.42 | 0.52 | 0.44 | 93 | 1015.3 |
| 20260905172849 | 76 | 180 | 0.0 | 0.0 | 0.42 | 0.50 | 0.42 | 91 | 1015.3 |
| 20260905171849 | 77 | 84 | 0.0 | 0.0 | 0.37 | 0.45 | 0.36 | 91 | 1015.7 |
| 20260905171747 | 77 | 90 | 0.0 | 0.0 | 0.36 | 0.44 | 0.36 | 91 | 1015.7 |
| 20260905170749 | 78 | 60 | 0.0 | 1.0 | 0.30 | 0.38 | 0.30 | 90 | 1015.7 |
| 20260905165751 | 80 | 13 | 0.0 | 3.0 | 0.28 | 0.36 | 0.28 | 89 | 1015.8 |
| 20260905164748 | 81 | 202 | 0.0 | 0.0 | 0.21 | 0.28 | 0.18 | 84 | 1015.5 |